TimeCST,TemperatureF,Dew PointF,Humidity,Sea Level PressureIn,VisibilityMPH,Wind Direction,Wind SpeedMPH,Gust SpeedMPH,PrecipitationIn,Events,Conditions,WindDirDegrees,DateUTC
12:53 AM,39.0,27.0,62,30.01,10.0,SSE,9.2,-,N/A,,Clear,160,2013-02-18 06:53:00
1:53 AM,39.9,28.0,63,30.00,10.0,South,8.1,-,N/A,,Clear,180,2013-02-18 07:53:00
2:53 AM,41.0,30.0,65,29.99,10.0,South,8.1,-,N/A,,Clear,170,2013-02-18 08:53:00
3:53 AM,45.0,32.0,60,29.98,10.0,South,15.0,-,N/A,,Clear,190,2013-02-18 09:53:00
4:53 AM,45.0,35.1,68,29.98,10.0,South,13.8,23.0,N/A,,Clear,190,2013-02-18 10:53:00
5:53 AM,45.0,37.0,74,29.97,10.0,South,16.1,25.3,N/A,,Clear,190,2013-02-18 11:53:00
6:53 AM,44.1,37.9,79,29.97,10.0,South,19.6,-,N/A,,Clear,180,2013-02-18 12:53:00
7:53 AM,46.4,39.2,76,29.97,10.0,South,19.6,26.5,N/A,,Clear,190,2013-02-18 13:53:00
8:53 AM,48.9,39.9,71,29.96,10.0,South,18.4,36.8,N/A,,Mostly Cloudy,190,2013-02-18 14:53:00
9:53 AM,52.0,42.1,69,29.94,10.0,South,19.6,28.8,N/A,,Overcast,190,2013-02-18 15:53:00
10:53 AM,53.1,42.1,66,29.92,10.0,South,21.9,33.4,N/A,,Overcast,190,2013-02-18 16:53:00
11:53 AM,53.1,43.0,69,29.88,10.0,South,26.5,36.8,N/A,,Overcast,180,2013-02-18 17:53:00
12:53 PM,51.1,45.0,80,29.86,7.0,South,19.6,27.6,0.02,Rain,Light Rain,190,2013-02-18 18:53:00
1:53 PM,50.0,46.0,86,29.81,4.0,South,18.4,24.2,0.06,Rain,Rain,170,2013-02-18 19:53:00
2:03 PM,50.0,46.4,87,29.80,2.5,South,20.7,29.9,0.04,Rain,Heavy Rain,170,2013-02-18 20:03:00
2:11 PM,50.0,46.4,87,29.80,8.0,South,18.4,-,0.04,Rain,Light Rain,170,2013-02-18 20:11:00
2:24 PM,50.0,46.4,87,29.79,10.0,South,15.0,26.5,0.04,,Overcast,170,2013-02-18 20:24:00
2:53 PM,51.1,46.0,83,29.78,10.0,South,19.6,28.8,0.04,,Overcast,180,2013-02-18 20:53:00
3:42 PM,51.8,46.4,82,29.74,7.0,South,21.9,28.8,0.06,Rain-Thunderstorm,Light Rain,170,2013-02-18 21:42:00
3:53 PM,50.0,46.9,89,29.73,3.0,South,19.6,29.9,0.08,Rain,Rain,170,2013-02-18 21:53:00
4:01 PM,50.0,46.4,87,29.71,3.0,South,23.0,29.9,0.01,Rain-Thunderstorm,Rain,170,2013-02-18 22:01:00
4:11 PM,50.0,46.4,87,29.72,1.8,South,23.0,32.2,0.07,Rain-Thunderstorm,Heavy Thunderstorms and Rain,170,2013-02-18 22:11:00
4:20 PM,50.0,48.2,94,29.72,2.0,South,17.3,29.9,0.10,Rain-Thunderstorm,Thunderstorms and Rain,170,2013-02-18 22:20:00
4:25 PM,50.0,48.2,94,29.72,6.0,South,16.1,23.0,0.10,Rain-Thunderstorm,Light Rain,170,2013-02-18 22:25:00
4:37 PM,50.0,48.2,94,29.70,8.0,SSE,19.6,25.3,0.10,Rain-Thunderstorm,Light Rain,160,2013-02-18 22:37:00
4:44 PM,50.0,48.2,94,29.70,4.0,SSE,18.4,-,0.11,Rain,Light Rain,160,2013-02-18 22:44:00
4:53 PM,50.0,48.0,93,29.70,6.0,South,17.3,29.9,0.12,Rain,Light Rain,170,2013-02-18 22:53:00
5:14 PM,50.0,48.2,94,29.69,6.0,South,9.2,18.4,0.03,Rain,Rain,180,2013-02-18 23:14:00
5:39 PM,51.8,46.4,82,29.68,10.0,South,21.9,29.9,0.03,,Overcast,180,2013-02-18 23:39:00
5:53 PM,51.1,48.0,89,29.68,10.0,South,20.7,25.3,0.03,Rain,Light Rain,180,2013-02-18 23:53:00
6:33 PM,51.8,48.2,88,29.66,9.0,South,21.9,28.8,0.00,Rain,Light Rain,180,2013-02-19 00:33:00
6:41 PM,51.8,48.2,88,29.66,10.0,South,20.7,29.9,0.00,,Overcast,180,2013-02-19 00:41:00
6:53 PM,51.1,48.0,89,29.65,3.0,South,20.7,32.2,0.04,Rain,Heavy Rain,180,2013-02-19 00:53:00
7:06 PM,51.8,48.2,88,29.73,2.0,West,27.6,35.7,N/A,Rain-Thunderstorm,Rain,260,2013-02-19 01:06:00
7:13 PM,50.0,48.2,94,29.73,1.2,West,15.0,35.7,0.23,Rain-Thunderstorm,Heavy Rain,260,2013-02-19 01:13:00
7:19 PM,50.0,48.2,94,29.72,3.0,WSW,10.4,-,0.26,Rain-Thunderstorm,Rain,250,2013-02-19 01:19:00
7:26 PM,50.0,48.2,94,29.71,4.0,SSW,9.2,-,0.28,Rain-Thunderstorm,Rain,210,2013-02-19 01:26:00
7:34 PM,50.0,46.4,87,29.66,6.0,SSE,10.4,-,0.29,Rain,Light Rain,160,2013-02-19 01:34:00
7:53 PM,50.0,46.0,86,29.67,10.0,South,13.8,-,0.30,,Overcast,190,2013-02-19 01:53:00
8:53 PM,48.0,45.0,89,29.72,10.0,SSW,18.4,-,N/A,,Overcast,210,2013-02-19 02:53:00
9:36 PM,46.4,42.8,87,29.78,10.0,WNW,28.8,36.8,N/A,,Overcast,300,2013-02-19 03:36:00
9:53 PM,46.0,39.9,79,29.80,10.0,WNW,26.5,33.4,N/A,,Overcast,300,2013-02-19 03:53:00
10:53 PM,43.0,37.9,82,29.86,10.0,NW,15.0,25.3,N/A,,Overcast,310,2013-02-19 04:53:00
11:53 PM,43.0,36.0,76,29.90,10.0,WNW,15.0,-,N/A,,Overcast,300,2013-02-19 05:53:00